sat.trackr.live / text

‹ back to catalog

STARLINK-31979

NORAD 59964 · 2024-107V

PAYLOAD ACTIVE UNKNOWN

§ Identity

Operator
Country
US
Launch date
2024-06-05
Launch site
AFETR
Launch vehicle
Mass (kg)
RCS (m²)

Purposes: comms

External: N2YO · Heavens-Above · Gunter

§ Orbital elements

Epoch: 2026-09-21T21:44:07.448928Z

Period
93.85 min
Inclination
53.1610°
Eccentricity
0.0001708
Mean motion
15.34405715 rev/d
Perigee alt
461.5 km
Apogee alt
463.9 km
Semi-major
6,840.8 km
B*
8.0109e-5
RAAN
230.8905°
Arg perigee
93.4434°
Mean anomaly
266.6764°
Rev number
12,983

§ Raw data

STARLINK-319791 59964U 24107V   26264.90564177  .00002331  00000+0  80109-4 0  99962 59964  53.1610 230.8905 0001708  93.4434 266.6764 15.34405715129836

JSON: /api/v1/satellites/59964 · /tle

For live sub-satellite position, see the globe view (requires WebGL).

§ Visibility from observer

Set your observer location to see the next 7 days of passes ≥ 10°. The values pass through the URL so the page stays shareable.

No JS? Fill the form by hand. The geolocation button needs JavaScript.